Starlink 33835

operational
NORAD ID: 63645 Int'l Des: 2025-083 Owner: SPXS Country: US Constellation: starlink
LEOCIRCULAR

Über Starlink 33835

Beschreibung wird geladen...

Live-Position

3D-Globus wird geladen...

Nächste Überflüge

Höhenverlauf

Altitude vs Time

uPlot chart will show altitude changes over time

Zweizeiliger Elementsatz

1 63645U 25083M 25351.35279697 .00020472 00000-0 75099-3 0 9994
2 63645 42.9978 110.2700 0002304 289.2978 70.7624 15.27596987 37500
Epoch: 17. Dez. 2025 • Age: 9 hours

Aktueller Status

Höhe 482.7 km
Geschwindigkeit 7.63 km/s
Subsatellitenpunkt -4.96°S, 108.38°E
Startdatum 25. Apr. 2025
Alter 0.6 years
Typ internet

Technische Details

Klassifizierung Payload
Masse 575.00 kg
Trockenmasse 530.00 kg
Gesamtmasse 575.00 kg
Länge 0.30 m
Durchmesser 4.10 m
Spannweite 29.00 m
Form Box + pan
Hersteller SPXS
Bus-Typ Starlink V2MO
Phasenstatus In Orbit
Besitzer/Staat SPXS/US

Große Konstellationen

Loading constellations...